Estación Meteorológica Peña el Pijo (Robertgarden) [ 12/11/19 23:02:53 CET ]

Fecha Hora Presion(HPa) Temp (°C) Humedad % Rocio (°C) Viento ( m/s) Direccion Lluvia 1Hora(mm) Lluvia 24H(mm) LLuvia Total(mm)
2019-Dec-05 01:09:22 998.900 - - - - S     39.88
2019-Dec-05 02:09:44 999.200 - - - - S     39.88
2019-Dec-05 03:13:14 999.800 - - - - S     39.88
2019-Dec-05 04:09:09 1000.000 - - - - S     39.88
2019-Dec-05 05:09:22 1000.300 - - - - S     39.88
2019-Dec-05 06:09:00 1000.600 - - - - S     39.88
2019-Dec-05 07:08:50 1000.900 - - - - S     39.88
2019-Dec-05 08:09:13 1001.700 - - - - S     39.88
2019-Dec-05 09:09:15 1002.700 - - - - S     39.88
2019-Dec-05 10:09:36 1003.400 - - - - S     39.88
2019-Dec-05 11:09:23 1004.000 - - - - S     39.88
2019-Dec-05 12:09:10 1004.400 - - - - S     39.88
2019-Dec-05 13:08:50 1004.700 - - - - S     39.88
2019-Dec-05 14:08:51 1004.500 - - - - S     39.88
2019-Dec-05 15:09:39 1004.200 - - - - S     39.88
2019-Dec-05 16:09:34 1004.700 - - - - S     39.88
2019-Dec-05 17:09:05 1005.400 - - - - S     39.88
2019-Dec-05 18:09:07 1006.100 - - - - S     39.88
2019-Dec-05 19:09:13 1007.000 - - - - S     39.88
2019-Dec-05 20:09:16 1007.500 - - - - S     39.88
2019-Dec-05 21:09:15 1008.000 - - - - S     39.88
2019-Dec-05 22:09:27 1008.500 - - - - S     39.88
2019-Dec-05 23:09:05 1008.800 - - - - S     39.88

Temperatura Máxima:    Temperatura Mínima:
Presión Máxima:1008.800 Hpa    Presión Mínima:998.900 Hpa


Volver